This is the latest recevied weather packets stored in our database for station/object K7KAR-2. If no packets are shown the sender has not sent any weather packets the latest 10 day(s).
| Time | Temp. | Humidity | Pressure | Rain* | Wind** | Luminosity | Snow |
|---|---|---|---|---|---|---|---|
| 1777738034 | 15.56° C | 14% | 1018.1 hPa | 0 mm | - | 892 W/m² | - |
| 1777737733 | 15.56° C | 13% | 1018.1 hPa | 0 mm | - | 672 W/m² | - |
| 1777737431 | 15.56° C | 12% | 1018 hPa | 0 mm | - | 775 W/m² | - |
| 1777737128 | 16.11° C | 13% | 1017.8 hPa | 0 mm | - | 771 W/m² | - |
| 1777736824 | 15.56° C | 11% | 1017.7 hPa | 0 mm | - | 593 W/m² | - |
| 1777736195 | 15° C | 10% | 1017.7 hPa | 0 mm | - | 448 W/m² | - |
| 1777735892 | 15.56° C | 10% | 1017.9 hPa | 0 mm | - | 458 W/m² | - |
| 1777735590 | 15.56° C | 10% | 1017.9 hPa | 0 mm | - | 537 W/m² | - |
| 1777735287 | 15.56° C | 13% | 1017.8 hPa | 0 mm | - | 750 W/m² | - |
| 1777734984 | 15° C | 18% | 1017.8 hPa | 0 mm | - | 515 W/m² | - |
| 1777734681 | 15° C | 18% | 1017.9 hPa | 0 mm | - | 463 W/m² | - |
| 1777734379 | 14.44° C | 20% | 1017.6 hPa | 0 mm | - | 329 W/m² | - |
| 1777734075 | 13.89° C | 21% | 1017.7 hPa | 0 mm | - | 259 W/m² | - |
| 1777733771 | 13.89° C | 22% | 1017.5 hPa | 0 mm | - | 243 W/m² | - |
| 1777733469 | 13.89° C | 23% | 1017.6 hPa | 0 mm | - | 295 W/m² | - |
| 1777733164 | 12.78° C | 24% | 1017.6 hPa | 0 mm | - | 312 W/m² | - |
| 1777732861 | 12.78° C | 24% | 1017.7 hPa | 0 mm | - | 241 W/m² | - |
| 1777732557 | 12.22° C | 24% | 1017.1 hPa | 0 mm | - | 299 W/m² | - |
| 1777732256 | 12.22° C | 25% | 1017.8 hPa | 0 mm | - | 333 W/m² | - |
| 1777731952 | 12.78° C | 23% | 1016.9 hPa | 0 mm | - | 244 W/m² | - |
| 1777731649 | 11.67° C | 24% | 1017.2 hPa | 0 mm | - | 462 W/m² | - |
| 1777731346 | 10.56° C | 26% | 1017 hPa | 0 mm | - | 483 W/m² | - |
| 1777731044 | 10° C | 27% | 1016.7 hPa | 0 mm | - | 207 W/m² | - |
| 1777730743 | 10° C | 28% | 1016.7 hPa | 0 mm | - | 268 W/m² | - |
| 1777730438 | 9.44° C | 28% | 1016.8 hPa | 0 mm | - | 218 W/m² | - |
* Rain latest hour (hover to see other rain measurements)
** Current wind speed in m/s (hover to see current wind gust speed)